Location: Brompton
(51.4000°N, 0.5333°E)
Time: 09:17:20
(UTC+00:00)

Cosmos 1818 - Pass Details

Date: 11 May 2021
Orbit: 771 x 802 km, 65.0° (Epoch: 12 June)

Event Time Altitude Azimuth Distance (km) Brightness Sun altitude
Rises 22:23:33 0° 318° (NW) 3,321 8.1 -17.7°
Reaches altitude 10° 22:25:59 10° 318° (NW) 2,388 7.1 -17.8°
Maximum altitude 22:31:31 89° 229° (SW) 809 3.5 -18.2°
Enters shadow 22:34:13 31° 141° (SE) 1,364 4.3 -18.3°
